Tracking 20241 objects as of 25-Jan-2020
HD Live streaming from Space Station
objects crossing your sky now

SL-14 R/B

Track SL-14 R/B now!
10-day predictions


NORAD ID: 22693
Int'l Code: 1993-038G
Perigee: 1,415.1 km
Apogee: 1,488.1 km
Inclination: 82.6 °
Period: 114.8 minutes
Semi major axis: 7822 km
RCS: 6.2821 m2 (large)
Launch date: June 24, 1993
Source: Commonwealth of Independent States (former USSR) (CIS)
Launch site: PLESETSK MISSILE AND SPACE COMPLEX (PKMTR)

Note: This is a ROCKET BODY
aabbcc
Your satellite tracking list
Your tracking list is empty




NASA's NSSDC Master Catalog

Two Line Element Set (TLE):
1 22693U 93038G   20024.86326076  .00000005  00000-0 -32623-4 0  9997
2 22693  82.5857  17.8689 0046685 141.9705 267.5072 12.54810501218382
Source of the keplerian elements: AFSPC